Retour au catalogue

SL-16 DEB

ActifLEO
NORAD 22374·DEBRIS·🇷🇺 Russia

Lancé Dec 25, 1992 depuis Baikonur Cosmodrome

Loading…

Prochains Passages (prochaines 24 heures)

TLE

FraisSource: Space-Track

Époque: Sep 14, 2026, 14:58 UTC

1 22374U 92093BP  26257.62416392  .00000447  00000-0  34970-3 0  9997
2 22374  70.7887 320.7516 0173458   8.9682 142.5623 13.90705571699153

Suivez SL-16 DEB en temps réel avec AllMySat

Download on the App Store